Aurora, OR

12:52 AM PDT on March 26, 2017 (GMT -0700)
Aurora State

Weather History for KUAO - March, 2014

Change the Weather History Date:

Monday, March 17, 2014

  Actual Average Record
Temperature  
Mean Temperature 42 °F -  
Max Temperature 51 °F - 66 °F (2007)
Min Temperature 37 °F - 30 °F (2005)
Degree Days  
Heating Degree Days 21    
Month to date heating degree days 265  
Since 1 July heating degree days 3712  
Cooling Degree Days 0    
Month to date cooling degree days 0  
Year to date cooling degree days 0  
Moisture  
Dew Point 36 °F    
Average Humidity 75    
Maximum Humidity 100    
Minimum Humidity 50    
Precipitation  
Precipitation 0.03 in - 0.51 in (1953)
Month to date precipitation 4.58  
Year to date precipitation 12.90  
Sea Level Pressure  
Sea Level Pressure 30.33 in    
Wind  
Wind Speed 5 mph (SW)    
Max Wind Speed 14 mph    
Max Gust Speed 20 mph    
Visibility 10 miles    
Events Rain    
T = Trace of Precipitation, MM = Missing Value Source: NWS Daily Summary

Daily Weather History Graph

Daily Weather History Graph

Search for Another Location

Airport or City:

Trip Planner

Search our weather history database for the weather conditions in past years. The results will help you decide how hot, cold, wet, or windy it might be!

Date:

Astronomy

Mar. 17, 2014 Rise Set
Actual Time 7:19 AM PDT 7:19 PM PDT
Civil Twilight 6:50 AM PDT 7:49 PM PDT
Nautical Twilight 6:15 AM PDT 8:23 PM PDT
Astronomical Twilight 5:40 AM PDT 8:58 PM PDT
Moon 8:47 PM PDT (3/17) 7:34 AM PDT (3/17)
Length of Visible Light 12h 58m
Length of Day
12h 00m
Full, 99% of the Moon is Illuminated
Mar 17
Full
Mar 23
Last Quarter
Mar 30
New
Apr 7
First Quarter
Apr 15
Full

Hourly Weather History & Observations

Time (PDT) Temp. Windchill Dew Point Humidity Pressure Visibility Wind Dir Wind Speed Gust Speed Precip Events Conditions
12:22 AM 43.0 °F - 39.9 °F 89% 30.13 in 10.0 mi Calm Calm - 0.00 in   Overcast
12:53 AM 42.1 °F 38.4 °F 41.0 °F 96% 30.14 in 10.0 mi South 5.8 mph - 0.00 in   Overcast
1:53 AM 42.1 °F 38.4 °F 39.9 °F 92% 30.17 in 10.0 mi SSW 5.8 mph - N/A   Overcast
2:53 AM 41.0 °F 38.0 °F 39.0 °F 93% 30.20 in 10.0 mi SSW 4.6 mph - N/A   Overcast
3:53 AM 39.0 °F 36.8 °F 37.9 °F 96% 30.22 in 10.0 mi SW 3.5 mph - N/A   Partly Cloudy
4:53 AM 39.0 °F 35.7 °F 37.0 °F 93% 30.24 in 10.0 mi SW 4.6 mph - N/A   Clear
5:53 AM 37.9 °F 35.5 °F 37.0 °F 97% 30.28 in 10.0 mi South 3.5 mph - N/A   Mostly Cloudy
6:53 AM 37.9 °F 34.4 °F 37.0 °F 97% 30.31 in 10.0 mi South 4.6 mph - N/A   Mostly Cloudy
7:53 AM 37.9 °F 35.5 °F 36.0 °F 93% 30.34 in 10.0 mi SSW 3.5 mph - N/A   Clear
8:53 AM 39.9 °F 37.8 °F 37.0 °F 89% 30.36 in 10.0 mi South 3.5 mph - N/A   Mostly Cloudy
9:53 AM 42.1 °F 38.4 °F 39.0 °F 89% 30.38 in 10.0 mi SW 5.8 mph - N/A   Mostly Cloudy
10:53 AM 46.0 °F 43.9 °F 37.9 °F 73% 30.38 in 10.0 mi Variable 4.6 mph - N/A   Partly Cloudy
11:53 AM 46.9 °F - 35.1 °F 63% 30.39 in 10.0 mi Variable 5.8 mph - N/A   Overcast
12:53 PM 48.0 °F - 37.9 °F 68% 30.39 in 10.0 mi Variable 6.9 mph - 0.01 in   Mostly Cloudy
1:53 PM 45.0 °F 42.6 °F 37.9 °F 76% 30.38 in 10.0 mi Variable 4.6 mph - 0.01 in Rain Light Rain
2:53 PM 46.0 °F 44.8 °F 39.0 °F 76% 30.37 in 6.0 mi Variable 3.5 mph - 0.01 in Rain Light Rain
3:53 PM 48.0 °F - 37.0 °F 66% 30.37 in 10.0 mi West 8.1 mph - 0.00 in   Overcast
4:53 PM 48.9 °F - 34.0 °F 56% 30.37 in 10.0 mi North 8.1 mph - N/A   Overcast
5:53 PM 48.0 °F - 30.9 °F 52% 30.38 in 10.0 mi NNW 6.9 mph 16.1 mph N/A   Scattered Clouds
6:53 PM 46.0 °F 43.1 °F 30.9 °F 56% 30.38 in 10.0 mi NNW 5.8 mph - N/A   Partly Cloudy
7:53 PM 44.1 °F 40.8 °F 28.9 °F 55% 30.40 in 10.0 mi NNW 5.8 mph - N/A   Partly Cloudy
8:53 PM 43.0 °F 41.3 °F 32.0 °F 65% 30.40 in 10.0 mi NNW 3.5 mph - N/A   Overcast
9:53 PM 41.0 °F - 33.1 °F 73% 30.41 in 10.0 mi Calm Calm - N/A   Partly Cloudy
10:53 PM 41.0 °F 38.0 °F 34.0 °F 76% 30.42 in 10.0 mi WSW 4.6 mph - N/A   Overcast
11:53 PM 42.1 °F - 35.1 °F 76% 30.41 in 10.0 mi Calm Calm - N/A   Overcast